| time (UTC) | temp C | wind direction | speed KPH | gust KPH | rain 1hr cm | rain 24hr cm | rain mn cm | humidity % | barometer mb |
| 20260506165420 | -17 | 0 | 0.0 | 9.7 | 0.00 | 0.00 | 0.00 | 1003.0 | |
| 20260506164336 | -17 | 45 | 0.0 | 6.4 | 0.00 | 0.00 | 0.00 | 1002.9 | |
| 20260506163253 | -17 | 0 | 4.8 | 8.0 | 0.00 | 0.00 | 0.00 | 1003.0 | |
| 20260506162209 | -17 | 45 | 1.6 | 12.9 | 0.00 | 0.00 | 0.00 | 1003.0 | |
| 20260506161125 | -17 | 113 | 1.6 | 11.3 | 0.00 | 0.00 | 0.00 | 1002.7 | |
| 20260506160041 | -17 | 180 | 8.0 | 22.5 | 0.00 | 0.00 | 0.00 | 1002.7 | |
| 20260506154959 | -17 | 135 | 11.3 | 12.9 | 0.00 | 0.00 | 0.00 | 1002.8 | |
| 20260506153918 | -17 | 180 | 8.0 | 32.2 | 0.00 | 0.00 | 0.00 | 1002.9 | |
| 20260506152833 | -17 | 135 | 3.2 | 17.7 | 0.00 | 0.00 | 0.00 | 1002.9 | |
| 20260506151752 | -17 | 135 | 9.7 | 22.5 | 0.00 | 0.00 | 0.00 | 1003.0 | |
| 20260506150709 | -17 | 225 | 8.0 | 24.1 | 0.00 | 0.00 | 0.00 | 1002.9 | |
| 20260506145624 | -17 | 90 | 9.7 | 25.7 | 0.00 | 0.00 | 0.00 | 1003.2 | |
| 20260506143457 | -17 | 180 | 6.4 | 27.4 | 0.00 | 0.00 | 0.00 | 1003.5 | |
| 20260506142416 | -17 | 180 | 6.4 | 29.0 | 0.00 | 0.00 | 0.00 | 1003.6 | |
| 20260506141332 | -17 | 180 | 12.9 | 25.7 | 0.00 | 0.00 | 0.00 | 1003.7 | |
| 20260506140249 | -17 | 180 | 6.4 | 12.9 | 0.00 | 0.00 | 0.00 | 1003.7 | |
| 20260506135203 | -17 | 135 | 6.4 | 14.5 | 0.00 | 0.00 | 0.00 | 1003.8 | |
| 20260506134118 | -17 | 90 | 6.4 | 12.9 | 0.00 | 0.00 | 0.00 | 1004.0 | |
| 20260506133036 | -17 | 248 | 6.4 | 12.9 | 0.00 | 0.00 | 0.00 | 1004.2 | |
| 20260506131950 | -17 | 270 | 9.7 | 17.7 | 0.00 | 0.00 | 0.00 | 1004.4 | |
| 20260506130257 | -17 | 225 | 4.8 | 22.5 | 0.00 | 0.00 | 0.00 | 1004.6 | |
| 20260506124449 | -17 | 270 | 9.7 | 22.5 | 0.00 | 0.00 | 0.00 | 1004.7 | |
| 20260506122728 | -17 | 135 | 3.2 | 20.9 | 0.00 | 0.00 | 0.00 | 1004.9 | |
| 20260506121646 | -17 | 180 | 9.7 | 17.7 | 0.00 | 0.00 | 0.00 | 1004.9 | |
| 20260506120601 | -17 | 270 | 9.7 | 14.5 | 0.00 | 0.00 | 0.00 | 1004.9 | |
| 20260506115518 | -17 | 135 | 6.4 | 19.3 | 0.00 | 0.00 | 0.00 | 1004.9 | |
| 20260506114433 | -17 | 90 | 1.6 | 14.5 | 0.00 | 0.00 | 0.00 | 1005.1 | |
| 20260506113350 | -17 | 180 | 4.8 | 12.9 | 0.00 | 0.00 | 0.00 | 1005.1 | |
| 20260506112306 | -17 | 315 | 4.8 | 16.1 | 0.00 | 0.00 | 0.00 | 1005.2 | |
| 20260506111224 | -17 | 203 | 9.7 | 12.9 | 0.00 | 0.00 | 0.00 | 1005.3 | |
| 20260506110141 | -17 | 225 | 9.7 | 14.5 | 0.00 | 0.00 | 0.00 | 1005.5 | |
| 20260506105057 | -17 | 225 | 6.4 | 16.1 | 0.00 | 0.00 | 0.00 | 1005.6 | |
| 20260506104014 | -17 | 270 | 9.7 | 16.1 | 0.00 | 0.00 | 0.00 | 1005.6 | |
| 20260506102930 | -17 | 225 | 9.7 | 17.7 | 0.00 | 0.00 | 0.00 | 1005.6 | |
| 20260506101846 | -17 | 270 | 9.7 | 19.3 | 0.00 | 0.00 | 0.00 | 1005.8 | |
| 20260506100804 | -17 | 135 | 12.9 | 30.6 | 0.00 | 0.00 | 0.00 | 1006.0 | |
| 20260506095721 | -17 | 270 | 17.7 | 20.9 | 0.00 | 0.00 | 0.00 | 1006.0 | |
| 20260506094638 | -17 | 225 | 16.1 | 20.9 | 0.00 | 0.00 | 0.00 | 1006.0 | |
| 20260506093554 | -17 | 225 | 12.9 | 19.3 | 0.00 | 0.00 | 0.00 | 1006.2 | |
| 20260506092513 | -17 | 315 | 9.7 | 20.9 | 0.00 | 0.00 | 0.00 | 1006.3 | |
| 20260506091430 | -17 | 315 | 11.3 | 14.5 | 0.00 | 0.00 | 0.00 | 1006.3 | |
| 20260506090347 | -17 | 270 | 11.3 | 16.1 | 0.00 | 0.00 | 0.00 | 1006.5 | |
| 20260506085306 | -17 | 225 | 8.0 | 20.9 | 0.00 | 0.00 | 0.00 | 1006.5 | |
| 20260506084221 | -17 | 270 | 4.8 | 20.9 | 0.00 | 0.00 | 0.00 | 1006.6 | |
| 20260506083137 | -17 | 270 | 9.7 | 14.5 | 0.00 | 0.00 | 0.00 | 1006.6 | |
| 20260506082054 | -17 | 270 | 8.0 | 17.7 | 0.00 | 0.00 | 0.00 | 1006.7 | |
| 20260506081012 | -17 | 270 | 6.4 | 22.5 | 0.00 | 0.00 | 0.00 | 1006.7 | |
| 20260506072721 | -17 | 225 | 9.7 | 16.1 | 0.00 | 0.00 | 0.00 | 1006.9 | |
| 20260506071637 | -17 | 0 | 8.0 | 16.1 | 0.00 | 0.00 | 0.00 | 1006.8 | |
| 20260506070554 | -17 | 0 | 11.3 | 27.4 | 0.00 | 0.00 | 0.00 | 1007.0 | |
| 20260506061220 | -17 | 45 | 4.8 | 24.1 | 0.00 | 0.00 | 0.00 | 1007.0 | |
| 20260506060138 | -17 | 0 | 9.7 | 16.1 | 0.00 | 0.00 | 0.00 | 1007.1 | |
| 20260506050757 | -17 | 270 | 6.4 | 14.5 | 0.00 | 0.00 | 0.00 | 1006.8 | |
| 20260506044630 | -17 | 225 | 0.0 | 4.8 | 0.00 | 0.00 | 0.00 | 1006.6 | |
| 20260506043545 | -17 | 225 | 3.2 | 4.8 | 0.00 | 0.00 | 0.00 | 1006.6 | |
| 20260506042459 | -17 | 270 | 0.0 | 4.8 | 0.00 | 0.00 | 0.00 | 1006.5 | |
| 20260506041317 | -17 | 180 | 1.6 | 4.8 | 0.00 | 0.00 | 0.00 | 1006.3 | |
| 20260506035019 | -17 | 180 | 6.4 | 6.4 | 0.00 | 0.00 | 0.00 | 1006.1 | |
| 20260506033933 | -17 | 225 | 4.8 | 6.4 | 0.00 | 0.00 | 0.00 | 1006.0 | |
| 20260506032850 | -17 | 135 | 0.0 | 6.4 | 0.00 | 0.00 | 0.00 | 1005.8 | |
| 20260506031758 | -17 | 225 | 4.8 | 8.0 | 0.00 | 0.00 | 0.00 | 1006.1 | |
| 20260506030701 | -17 | 180 | 0.0 | 3.2 | 0.00 | 0.00 | 0.00 | 1006.3 | |
| 20260506025618 | -17 | 135 | 0.0 | 3.2 | 0.00 | 0.00 | 0.00 | 1006.1 | |
| 20260506024534 | -17 | 135 | 1.6 | 1.6 | 0.00 | 0.00 | 0.00 | 1006.1 | |
| 20260506023447 | -17 | 135 | 1.6 | 1.6 | 0.00 | 0.00 | 0.00 | 1005.9 | |
| 20260506022402 | -17 | 135 | 1.6 | 3.2 | 0.00 | 0.00 | 0.00 | 1005.8 | |
| 20260506021319 | -17 | 135 | 0.0 | 0.0 | 0.00 | 0.00 | 0.00 | 1005.6 | |
| 20260506020235 | -17 | 135 | 0.0 | 0.0 | 0.00 | 0.00 | 0.00 | 1005.6 | |
| 20260506015151 | -17 | 135 | 0.0 | 0.0 | 0.00 | 0.00 | 0.00 | 1005.7 | |
| 20260506014107 | -17 | 135 | 0.0 | 1.6 | 0.00 | 0.00 | 0.00 | 1005.9 | |
| 20260506013023 | -17 | 315 | 1.6 | 3.2 | 0.00 | 0.00 | 0.00 | 1005.9 | |
| 20260506011937 | -17 | 0 | 1.6 | 6.4 | 0.00 | 0.00 | 0.00 | 1005.8 | |
| 20260506010853 | -17 | 0 | 3.2 | 6.4 | 0.00 | 0.00 | 0.00 | 1005.7 | |
| 20260506005805 | -17 | 68 | 3.2 | 11.3 | 0.00 | 0.00 | 0.00 | 1005.8 | |
| 20260506004723 | -17 | 0 | 9.7 | 14.5 | 0.00 | 0.00 | 0.00 | 1005.7 | |
| 20260506003641 | -17 | 0 | 11.3 | 14.5 | 0.00 | 0.00 | 0.00 | 1005.7 | |
| 20260506002558 | -17 | 338 | 3.2 | 4.8 | 0.00 | 0.00 | 0.00 | 1005.5 | |
| 20260506001515 | -17 | 225 | 3.2 | 6.4 | 0.00 | 0.00 | 0.00 | 1005.5 | |
| 20260506000431 | -17 | 270 | 4.8 | 8.0 | 0.00 | 0.00 | 0.00 | 1005.4 | |
| 20260505235346 | -17 | 225 | 3.2 | 6.4 | 0.00 | 0.00 | 0.00 | 1005.5 | |
| 20260505234301 | -17 | 225 | 3.2 | 4.8 | 0.00 | 0.00 | 0.00 | 1005.3 | |
| 20260505233218 | -17 | 270 | 3.2 | 8.0 | 0.00 | 0.00 | 0.00 | 1005.2 | |
| 20260505232136 | -17 | 315 | 1.6 | 14.5 | 0.00 | 0.00 | 0.00 | 1005.2 | |
| 20260505231053 | -17 | 180 | 9.7 | 11.3 | 0.00 | 0.00 | 0.00 | 1004.9 | |
| 20260505230011 | -17 | 180 | 6.4 | 17.7 | 0.00 | 0.00 | 0.00 | 1005.0 | |
| 20260505224925 | -17 | 225 | 11.3 | 24.1 | 0.00 | 0.00 | 0.00 | 1004.5 | |
| 20260505223844 | -17 | 135 | 11.3 | 38.6 | 0.00 | 0.00 | 0.00 | 1004.2 | |
| 20260505222800 | -17 | 135 | 16.1 | 29.0 | 0.00 | 0.00 | 0.00 | 1003.7 | |
| 20260505221717 | -17 | 180 | 11.3 | 25.7 | 0.00 | 0.00 | 0.00 | 1003.5 | |
| 20260505220633 | -17 | 180 | 17.7 | 22.5 | 0.00 | 0.00 | 0.00 | 1003.5 | |
| 20260505215546 | -17 | 135 | 8.0 | 25.7 | 0.00 | 0.00 | 0.00 | 1003.6 | |
| 20260505214503 | -17 | 90 | 9.7 | 24.1 | 0.00 | 0.00 | 0.00 | 1003.6 | |
| 20260505213418 | -17 | 90 | 16.1 | 22.5 | 0.00 | 0.00 | 0.00 | 1003.4 | |
| 20260505212336 | -17 | 68 | 9.7 | 25.7 | 0.00 | 0.00 | 0.00 | 1003.5 | |
| 20260505211254 | -17 | 225 | 16.1 | 22.5 | 0.00 | 0.00 | 0.00 | 1003.6 | |
| 20260505210209 | -17 | 90 | 6.4 | 20.9 | 0.00 | 0.00 | 0.00 | 1003.6 | |
| 20260505205127 | -17 | 135 | 11.3 | 20.9 | 0.00 | 0.00 | 0.00 | 1003.7 | |
| 20260505204044 | -17 | 248 | 12.9 | 20.9 | 0.00 | 0.00 | 0.00 | 1003.7 | |
| 20260505202959 | -17 | 180 | 14.5 | 24.1 | 0.00 | 0.00 | 0.00 | 1003.7 | |
| 20260505201912 | -17 | 135 | 9.7 | 22.5 | 0.00 | 0.00 | 0.00 | 1003.6 | |
| 20260505200827 | -17 | 225 | 14.5 | 17.7 | 0.00 | 0.00 | 0.00 | 1003.6 | |
| 20260505195744 | -17 | 90 | 9.7 | 24.1 | 0.00 | 0.00 | 0.00 | 1003.6 | |
| 20260505194702 | -17 | 45 | 14.5 | 29.0 | 0.00 | 0.00 | 0.00 | 1003.8 | |
| 20260505193616 | -17 | 135 | 8.0 | 14.5 | 0.00 | 0.00 | 0.00 | 1003.7 | |
| 20260505192533 | -17 | 225 | 4.8 | 20.9 | 0.00 | 0.00 | 0.00 | 1003.6 | |
| 20260505191452 | -17 | 135 | 3.2 | 17.7 | 0.00 | 0.00 | 0.00 | 1003.6 | |
| 20260505190410 | -17 | 90 | 14.5 | 19.3 | 0.00 | 0.00 | 0.00 | 1003.5 | |
| 20260505185324 | -17 | 180 | 8.0 | 16.1 | 0.00 | 0.00 | 0.00 | 1003.4 | |
| 20260505184240 | -17 | 90 | 6.4 | 16.1 | 0.00 | 0.00 | 0.00 | 1003.3 | |
| 20260505183157 | -17 | 180 | 6.4 | 17.7 | 0.00 | 0.00 | 0.00 | 1003.3 | |
| 20260505182114 | -17 | 135 | 4.8 | 12.9 | 0.00 | 0.00 | 0.00 | 1003.4 | |
| 20260505181032 | -17 | 45 | 4.8 | 9.7 | 0.00 | 0.00 | 0.00 | 1003.3 | |
| 20260505175948 | -17 | 90 | 3.2 | 3.2 | 0.00 | 0.00 | 0.00 | 1003.2 | |
| 20260505174906 | -17 | 113 | 1.6 | 3.2 | 0.00 | 0.00 | 0.00 | 1003.1 | |
| 20260505173822 | -17 | 135 | 1.6 | 4.8 | 0.00 | 0.00 | 0.00 | 1003.2 | |
| 20260505172739 | -17 | 90 | 3.2 | 4.8 | 0.00 | 0.00 | 0.00 | 1003.1 | |
| 20260505171657 | -17 | 135 | 3.2 | 6.4 | 0.00 | 0.00 | 0.00 | 1003.0 | |
| 20260505170616 | -17 | 135 | 3.2 | 6.4 | 0.00 | 0.00 | 0.00 | 1003.0 |